Location: Consuma
(43.7833°N, 11.5833°E)
Time: 21:29:58
(UTC+00:00)

STARLINK-1062 - Pass Details

Date: 17 February 2020
Orbit: 548 x 551 km, 53.0° (Epoch: 29 March)

Event Time Altitude Azimuth Distance (km) Brightness Sun altitude
Exits shadow 03:09:52 16° 105° (ESE) 1,466 6.3 -33.1°
Drops below altitude 10° 03:10:47 10° 108° (ESE) 1,815 6.9 -32.9°
Enters shadow 04:13:24 -58° 312° (NW) 11,461 10.3 -21.8°
